sat.trackr.live / text

‹ back to catalog

STARLINK-37637

NORAD 69026 · 2026-101B

PAYLOAD ACTIVE UNKNOWN

§ Identity

Operator
Country
US
Launch date
2026-05-06
Launch site
AFWTR
Launch vehicle
Mass (kg)
RCS (m²)

Purposes: comms

External: N2YO · Heavens-Above · Gunter

§ Orbital elements

Epoch: 2026-09-20T01:36:08.045856Z

Period
93.91 min
Inclination
97.2839°
Eccentricity
0.0001594
Mean motion
15.33449382 rev/d
Perigee alt
464.4 km
Apogee alt
466.6 km
Semi-major
6,843.7 km
B*
2.9436e-4
RAAN
116.5751°
Arg perigee
97.1714°
Mean anomaly
262.9710°
Rev number
2,111

§ Raw data

STARLINK-376371 69026U 26101B   26263.06675979  .00009441  00000+0  29436-3 0  99952 69026  97.2839 116.5751 0001594  97.1714 262.9710 15.33449382 21111

JSON: /api/v1/satellites/69026 · /tle

For live sub-satellite position, see the globe view (requires WebGL).

§ Visibility from observer

Set your observer location to see the next 7 days of passes ≥ 10°. The values pass through the URL so the page stays shareable.

No JS? Fill the form by hand. The geolocation button needs JavaScript.